FW9465 Weather Reports


time (UTC)temp
C
wind
direction
speed
KPH
gust
KPH
rain 1hr
cm
rain 24hr
cm
rain mn
cm
humidity
%
barometer
mb
20260506140432 11 348 11.3 20.9 0.00 0.00 0.00 83 1013.9
20260506135431 11 339 12.9 20.9 0.00 0.00 0.00 83 1014.5
20260506134433 11 313 16.1 22.5 0.00 0.00 0.00 83 1014.9
20260506133432 11 13 19.3 27.4 0.00 0.00 0.00 82 1014.0
20260506131449 11 359 12.9 16.1 0.00 0.00 0.00 81 1013.6
20260506130531 11 1 11.3 19.3 0.00 0.00 0.00 81 1013.7
20260506125533 11 12 16.1 25.7 0.00 0.00 0.00 80 1013.0
20260506124535 11 353 14.5 22.5 0.00 0.00 0.00 78 1012.8
20260506123531 11 342 17.7 27.4 0.00 0.00 0.00 78 1012.8
20260506121631 12 345 11.3 19.3 0.00 0.00 0.00 76 1012.9
20260506120632 12 352 14.5 19.3 0.00 0.00 0.00 76 1012.4
20260506115631 12 359 17.7 24.1 0.00 0.00 0.00 77 1012.4
20260506113633 12 355 14.5 19.3 0.00 0.00 0.00 76 1012.2
20260506112731 12 354 14.5 22.5 0.00 0.00 0.00 75 1012.2
20260506110831 13 356 11.3 20.9 0.00 0.00 0.00 75 1011.9
20260506105830 13 358 11.3 14.5 0.00 0.00 0.00 75 1011.5
20260506104832 13 346 11.3 19.3 0.00 0.00 0.00 75 1011.6
20260506103830 13 341 11.3 17.7 0.00 0.00 0.00 75 1011.3
20260506102832 13 352 8.0 16.1 0.00 0.00 0.00 77 1011.2
20260506101831 13 328 17.7 20.9 0.00 0.00 0.00 77 1011.2
20260506095931 13 4 9.7 14.5 0.00 0.00 0.00 75 1010.7
20260506094031 13 347 8.0 11.3 0.00 0.00 0.00 76 1010.5
20260506093034 13 342 9.7 14.5 0.00 0.00 0.00 77 1010.6
20260506092030 13 344 8.0 14.5 0.00 0.00 0.00 77 1010.4
20260506091033 13 348 14.5 17.7 0.00 0.00 0.00 78 1010.3
20260506090034 13 340 9.7 12.9 0.00 0.00 0.00 77 1010.5
20260506085047 13 334 11.3 16.1 0.00 0.00 0.00 78 1010.4
20260506084129 13 2 9.7 12.9 0.00 0.00 0.00 78 1010.3
20260506083132 13 357 14.5 19.3 0.00 0.00 0.00 79 1010.2
20260506082147 14 351 14.5 19.3 0.00 0.00 0.00 78 1010.0
20260506081231 14 341 12.9 19.3 0.00 0.00 0.00 79 1010.0
20260506080231 14 345 12.9 17.7 0.00 0.00 0.00 78 1010.0
20260506072247 15 7 8.0 11.3 0.00 0.00 0.00 80 1009.8
20260506071232 15 19 16.1 22.5 0.00 0.00 0.00 80 1009.6
20260506070330 15 28 11.3 14.5 0.00 0.00 0.00 80 1009.6
20260506062431 15 12 16.1 20.9 0.00 0.00 0.00 79 1009.7
20260506061432 15 12 11.3 16.1 0.00 0.00 0.00 78 1009.6
20260506060431 15 11 17.7 22.5 0.00 0.00 0.00 78 1009.5
20260506050432 16 2 12.9 19.3 0.00 0.00 0.00 76 1009.8
20260506044536 17 15 11.3 16.1 0.00 0.00 0.00 76 1009.7
20260506043534 17 357 17.7 24.1 0.00 0.00 0.00 74 1009.2
20260506042534 17 3 9.7 16.1 0.00 0.00 0.00 74 1009.2
20260506041536 18 17 16.1 24.1 0.00 0.00 0.00 74 1009.6
20260506040533 18 12 14.5 19.3 0.00 0.00 0.00 72 1009.6
20260506034535 18 332 16.1 22.5 0.00 0.00 0.00 73 1009.2
20260506033634 18 355 16.1 22.5 0.00 0.00 0.00 71 1008.7
20260506032634 18 347 14.5 22.5 0.00 0.00 0.00 71 1008.7
20260506030650 19 3 16.1 22.5 0.00 0.00 0.00 71 1008.2
20260506025635 19 25 16.1 22.5 0.00 0.00 0.00 70 1007.9
20260506023733 19 10 19.3 27.4 0.00 0.00 0.00 69 1007.8
20260506022733 20 20 14.5 19.3 0.00 0.00 0.00 70 1007.5
20260506021735 20 348 16.1 20.9 0.00 0.00 0.00 70 1007.4
20260506020832 20 330 12.9 19.3 0.00 0.00 0.00 70 1007.3
20260506015833 20 1 14.5 25.7 0.00 0.00 0.00 69 1007.0
20260506014834 21 348 16.1 25.7 0.00 0.00 0.00 68 1006.8
20260506012835 21 331 12.9 19.3 0.00 0.00 0.00 68 1006.2
20260506003949 22 343 14.5 22.5 0.00 0.00 0.00 64 1005.5
20260506003048 23 5 14.5 17.7 0.00 0.00 0.00 62 1005.4
20260506002133 23 341 11.3 14.5 0.00 0.00 0.00 62 1005.2
20260506002034 23 354 11.3 16.1 0.00 0.00 0.00 62 1005.3
20260506001033 23 3 14.5 17.7 0.00 0.00 0.00 61 1005.0
20260506000133 23 332 12.9 20.9 0.00 0.00 0.00 61 1005.0
20260505235135 24 342 17.7 20.9 0.00 0.00 0.00 60 1005.0
20260505234134 25 356 14.5 24.1 0.00 0.00 0.00 60 1004.8
20260505232134 26 340 17.7 29.0 0.00 0.00 0.00 59 1004.2
20260505231135 26 323 17.7 27.4 0.00 0.00 0.00 60 1004.1
20260505230151 27 344 17.7 25.7 0.00 0.00 0.00 56 1004.3
20260505225233 28 344 12.9 20.9 0.00 0.00 0.00 53 1004.1
20260505223234 28 351 9.7 16.1 0.00 0.00 0.00 48 1003.7
20260505222235 29 339 14.5 22.5 0.00 0.00 0.00 45 1003.7
20260505221333 30 350 16.1 20.9 0.00 0.00 0.00 44 1003.6
20260505220333 32 333 16.1 22.5 0.00 0.00 0.00 43 1003.6
20260505215333 32 282 4.8 6.4 0.00 0.00 0.00 44 1003.3
20260505214334 32 282 0.0 3.2 0.00 0.00 0.00 45 1003.5
20260505213333 32 292 6.4 9.7 0.00 0.00 0.00 43 1003.6
20260505212347 31 294 8.0 12.9 0.00 0.00 0.00 44 1003.5
20260505211434 31 269 12.9 20.9 0.00 0.00 0.00 43 1003.5
20260505210532 31 282 4.8 9.7 0.00 0.00 0.00 43 1003.7
20260505205534 32 256 14.5 17.7 0.00 0.00 0.00 43 1003.9
20260505204633 31 281 6.4 11.3 0.00 0.00 0.00 43 1004.0
20260505203634 31 255 14.5 22.5 0.00 0.00 0.00 42 1004.2
20260505202633 31 260 8.0 14.5 0.00 0.00 0.00 43 1004.1
20260505201634 31 250 9.7 20.9 0.00 0.00 0.00 47 1004.1
20260505195733 31 223 16.1 24.1 0.00 0.00 0.00 49 1004.1
20260505193731 31 210 9.7 19.3 0.00 0.00 0.00 51 1004.5
20260505190832 30 226 12.9 22.5 0.00 0.00 0.00 53 1004.5
20260505185832 30 223 11.3 27.4 0.00 0.00 0.00 55 1004.5
20260505184834 30 225 12.9 24.1 0.00 0.00 0.00 56 1004.4
20260505182932 29 230 9.7 17.7 0.00 0.00 0.00 58 1004.7
20260505180034 28 231 17.7 24.1 0.00 0.00 0.00 61 1004.7
20260505175033 28 191 11.3 17.7 0.00 0.00 0.00 62 1004.7
20260505174131 28 215 17.7 29.0 0.00 0.00 0.00 61 1004.8
20260505173132 28 197 6.4 17.7 0.00 0.00 0.00 64 1005.0
20260505172133 27 192 6.4 16.1 0.00 0.00 0.00 67 1005.0
20260505171133 27 202 6.4 17.7 0.00 0.00 0.00 66 1005.0
20260505170133 27 209 12.9 24.1 0.00 0.00 0.00 65 1004.9
20260505164150 26 201 12.9 29.0 0.00 0.00 0.00 67 1004.8
20260505162231 26 202 11.3 25.7 0.00 0.00 0.00 70 1004.6
20260505160331 25 207 12.9 20.9 0.00 0.00 0.00 71 1004.3
20260505152449 23 207 11.3 30.6 0.00 0.00 0.00 76 1004.5
20260505150532 23 202 20.9 35.4 0.00 0.00 0.00 77 1004.4
20260505140634 22 209 9.7 19.3 0.00 0.00 0.00 82 1004.5